FW9404 Weather Reports


Display with metric or nautical units.
time (UTC)temp
F
wind
direction
speed
MPH
gust
MPH
rain 1hr
in
rain 24hr
in
rain mn
in
humidity
%
barometer
mb
20260504050606 66 108 4.0 9.0 0.00 0.00 0.00 81 1020.4
20260504050103 66 119 1.0 3.0 0.00 0.00 0.00 81 1020.4
20260504045600 66 119 3.0 3.0 0.00 0.00 0.00 81 1020.6
20260504045055 66 123 2.0 3.0 0.00 0.00 0.00 80 1020.7
20260504044553 66 102 0.0 0.0 0.00 0.00 0.00 80 1020.9
20260504044049 66 115 0.0 2.0 0.00 0.00 0.00 80 1021.1
20260504043547 66 103 0.0 0.0 0.00 0.00 0.00 80 1021.2
20260504043044 66 108 2.0 3.0 0.00 0.00 0.00 80 1021.0
20260504042541 67 105 0.0 0.0 0.00 0.00 0.00 80 1021.0
20260504042038 67 104 0.0 0.0 0.00 0.00 0.00 80 1021.1
20260504041533 67 93 2.0 5.0 0.00 0.00 0.00 79 1021.2
20260504041029 67 77 0.0 0.0 0.00 0.00 0.00 79 1021.2
20260504040527 67 113 0.0 0.0 0.00 0.00 0.00 79 1021.3
20260504040024 67 113 0.0 0.0 0.00 0.00 0.00 78 1021.4
20260504035521 67 136 2.0 3.0 0.00 0.00 0.00 78 1021.2
20260504035017 67 130 2.0 3.0 0.00 0.00 0.00 78 1021.1
20260504034515 68 119 0.0 2.0 0.00 0.00 0.00 77 1021.3
20260504034012 68 151 1.0 2.0 0.00 0.00 0.00 77 1021.0
20260504033510 68 154 5.0 7.0 0.00 0.00 0.00 77 1021.2
20260504033007 68 104 0.0 0.0 0.00 0.00 0.00 76 1021.0
20260504032503 68 125 3.0 5.0 0.00 0.00 0.00 76 1021.0
20260504032000 68 103 1.0 2.0 0.00 0.00 0.00 76 1021.1
20260504031456 68 118 2.0 3.0 0.00 0.00 0.00 75 1021.1
20260504030954 69 137 1.0 3.0 0.00 0.00 0.00 75 1021.1
20260504030451 69 106 0.0 2.0 0.00 0.00 0.00 75 1021.4
20260504025946 69 95 0.0 0.0 0.00 0.00 0.00 74 1021.1
20260504025444 69 111 1.0 2.0 0.00 0.00 0.00 74 1021.0
20260504024941 69 102 0.0 2.0 0.00 0.00 0.00 74 1021.0
20260504024438 69 152 1.0 5.0 0.00 0.00 0.00 73 1021.0
20260504023934 69 102 3.0 5.0 0.00 0.00 0.00 73 1020.9
20260504023431 69 118 3.0 3.0 0.00 0.00 0.00 73 1021.0
20260504022926 70 112 1.0 2.0 0.00 0.00 0.00 72 1020.7
20260504022423 70 126 0.0 2.0 0.00 0.00 0.00 72 1020.9
20260504021920 70 101 0.0 0.0 0.00 0.00 0.00 71 1020.7
20260504021417 70 110 0.0 0.0 0.00 0.00 0.00 71 1020.8
20260504020914 71 97 0.0 2.0 0.00 0.00 0.00 70 1020.8
20260504020411 71 105 1.0 3.0 0.00 0.00 0.00 70 1020.8
20260504015908 71 141 1.0 3.0 0.00 0.00 0.00 69 1020.7
20260504015403 71 108 0.0 0.0 0.00 0.00 0.00 69 1020.6
20260504014859 71 120 1.0 2.0 0.00 0.00 0.00 69 1020.7
20260504014356 72 155 8.0 10.0 0.00 0.00 0.00 68 1020.7
20260504013853 72 121 3.0 3.0 0.00 0.00 0.00 67 1020.5
20260504013351 72 114 7.0 10.0 0.00 0.00 0.00 67 1020.7
20260504012847 72 96 2.0 3.0 0.00 0.00 0.00 67 1020.6
20260504012345 72 88 4.0 5.0 0.00 0.00 0.00 66 1020.7
20260504011842 72 135 6.0 9.0 0.00 0.00 0.00 66 1020.5
20260504011339 73 147 2.0 3.0 0.00 0.00 0.00 66 1020.3
20260504010835 73 122 2.0 3.0 0.00 0.00 0.00 65 1020.3
20260504010331 73 149 8.0 10.0 0.00 0.00 0.00 64 1020.3
20260504005827 73 106 7.0 9.0 0.00 0.00 0.00 64 1020.3
20260504005324 74 114 7.0 15.0 0.00 0.00 0.00 64 1020.2
20260504004822 74 124 7.0 9.0 0.00 0.00 0.00 63 1020.4
20260504004319 74 104 5.0 12.0 0.00 0.00 0.00 63 1020.4
20260504003815 74 140 10.0 12.0 0.00 0.00 0.00 63 1020.3
20260504003313 75 112 1.0 2.0 0.00 0.00 0.00 62 1020.4
20260504002809 75 139 7.0 12.0 0.00 0.00 0.00 62 1020.3
20260504002306 75 99 8.0 12.0 0.00 0.00 0.00 62 1020.4
20260504001804 75 145 8.0 15.0 0.00 0.00 0.00 62 1020.6
20260504001301 75 97 7.0 10.0 0.00 0.00 0.00 61 1020.7
20260504000758 76 116 4.0 7.0 0.00 0.00 0.00 61 1020.6
20260504000254 76 109 6.0 10.0 0.00 0.00 0.00 61 1020.7
20260503235752 76 117 4.0 7.0 0.00 0.00 0.00 61 1020.4
20260503235250 76 99 7.0 12.0 0.00 0.00 0.00 60 1020.3
20260503234747 77 90 8.0 14.0 0.00 0.00 0.00 59 1020.5
20260503234245 77 96 9.0 14.0 0.00 0.00 0.00 59 1020.1
20260503233742 77 127 7.0 9.0 0.00 0.00 0.00 59 1020.3
20260503233238 77 86 4.0 7.0 0.00 0.00 0.00 60 1020.2
20260503232735 77 117 4.0 7.0 0.00 0.00 0.00 59 1020.5
20260503232232 77 137 7.0 9.0 0.00 0.00 0.00 58 1020.3
20260503231730 78 129 11.0 15.0 0.00 0.00 0.00 57 1020.4
20260503231226 78 87 10.0 12.0 0.00 0.00 0.00 57 1020.5
20260503230722 78 116 11.0 12.0 0.00 0.00 0.00 57 1020.4
20260503230220 78 132 10.0 12.0 0.00 0.00 0.00 56 1020.5
20260503225717 78 155 8.0 15.0 0.00 0.00 0.00 56 1020.6
20260503225218 78 109 4.0 5.0 0.00 0.00 0.00 56 1020.6
20260503224715 78 143 7.0 12.0 0.00 0.00 0.00 56 1020.6
20260503224213 78 129 3.0 5.0 0.00 0.00 0.00 55 1020.3
20260503223710 78 99 2.0 5.0 0.00 0.00 0.00 55 1020.6
20260503223207 79 97 6.0 12.0 0.00 0.00 0.00 54 1020.7
20260503222704 79 100 3.0 5.0 0.00 0.00 0.00 54 1020.9
20260503222202 80 87 3.0 5.0 0.00 0.00 0.00 54 1020.6
20260503221700 80 152 6.0 7.0 0.00 0.00 0.00 53 1020.8
20260503221157 80 82 7.0 12.0 0.00 0.00 0.00 52 1020.7
20260503220654 79 94 10.0 14.0 0.00 0.00 0.00 54 1020.7
20260503220150 80 133 11.0 15.0 0.00 0.00 0.00 53 1020.7
20260503215647 79 91 9.0 15.0 0.00 0.00 0.00 53 1021.0
20260503215143 79 107 11.0 19.0 0.00 0.00 0.00 54 1021.1
20260503214643 80 97 9.0 12.0 0.00 0.00 0.00 53 1021.1
20260503214138 80 158 11.0 14.0 0.00 0.00 0.00 52 1021.2
20260503213632 80 187 4.0 5.0 0.00 0.00 0.00 53 1021.5
20260503213128 80 136 2.0 7.0 0.00 0.00 0.00 53 1021.6
20260503212625 79 133 6.0 9.0 0.00 0.00 0.00 53 1021.8
20260503212123 78 146 7.0 10.0 0.00 0.00 0.00 54 1021.7
20260503211620 79 141 8.0 10.0 0.00 0.00 0.00 53 1021.7
20260503211116 80 151 10.0 12.0 0.00 0.00 0.00 52 1021.8
20260503210612 79 130 4.0 9.0 0.00 0.00 0.00 53 1021.9
20260503210109 79 124 7.0 10.0 0.00 0.00 0.00 53 1021.7
20260503205605 79 156 7.0 9.0 0.00 0.00 0.00 52 1022.0
20260503205101 80 95 12.0 17.0 0.00 0.00 0.00 52 1022.1
20260503204558 79 162 7.0 9.0 0.00 0.00 0.00 52 1022.2
20260503204055 80 102 3.0 7.0 0.00 0.00 0.00 51 1022.3
20260503203552 79 126 8.0 10.0 0.00 0.00 0.00 52 1022.2
20260503203049 79 112 8.0 12.0 0.00 0.00 0.00 52 1022.2
20260503202547 79 85 5.0 9.0 0.00 0.00 0.00 52 1022.3
20260503202045 80 120 7.0 9.0 0.00 0.00 0.00 51 1022.6
20260503201543 79 135 4.0 5.0 0.00 0.00 0.00 51 1022.4
20260503201040 80 88 12.0 15.0 0.00 0.00 0.00 50 1022.4
20260503200536 80 93 10.0 14.0 0.00 0.00 0.00 52 1022.8
20260503200033 80 146 7.0 10.0 0.00 0.00 0.00 50 1022.7
20260503195530 80 113 3.0 7.0 0.00 0.00 0.00 50 1022.8
20260503195027 81 84 8.0 12.0 0.00 0.00 0.00 49 1022.9
20260503194525 81 135 6.0 10.0 0.00 0.00 0.00 49 1022.9
20260503194024 81 108 7.0 10.0 0.00 0.00 0.00 47 1023.1
20260503193521 82 121 6.0 7.0 0.00 0.00 0.00 47 1023.2
20260503193016 81 149 3.0 5.0 0.00 0.00 0.00 49 1023.0
20260503192512 81 156 6.0 9.0 0.00 0.00 0.00 47 1023.2
20260503192008 80 106 8.0 10.0 0.00 0.00 0.00 48 1023.1
20260503191506 81 132 4.0 7.0 0.00 0.00 0.00 49 1023.2
20260503191002 80 132 3.0 5.0 0.00 0.00 0.00 50 1023.2
20260503190459 81 103 4.0 7.0 0.00 0.00 0.00 49 1023.1
20260503185956 82 135 4.0 9.0 0.00 0.00 0.00 49 1023.4
20260503185452 80 84 2.0 3.0 0.00 0.00 0.00 50 1023.5
20260503184952 80 140 7.0 12.0 0.00 0.00 0.00 51 1023.8
20260503184448 79 87 7.0 9.0 0.00 0.00 0.00 53 1023.5
20260503183945 79 55 5.0 7.0 0.00 0.00 0.00 52 1023.8
20260503183442 80 125 9.0 12.0 0.00 0.00 0.00 51 1023.9
20260503182938 81 72 8.0 14.0 0.00 0.00 0.00 50 1023.8
20260503182437 79 125 4.0 5.0 0.00 0.00 0.00 52 1023.9
20260503181935 81 120 4.0 7.0 0.00 0.00 0.00 50 1024.2
20260503181432 81 184 3.0 5.0 0.00 0.00 0.00 51 1024.2
20260503180927 81 95 1.0 3.0 0.00 0.00 0.00 48 1024.3
20260503180427 79 159 5.0 5.0 0.00 0.00 0.00 50 1024.3
20260503175923 78 109 5.0 7.0 0.00 0.00 0.00 52 1024.5
20260503175421 78 105 6.0 7.0 0.00 0.00 0.00 51 1024.7
20260503174916 80 71 6.0 7.0 0.00 0.00 0.00 50 1024.8
20260503174415 81 82 6.0 7.0 0.00 0.00 0.00 48 1024.7
20260503173914 81 94 2.0 3.0 0.00 0.00 0.00 48 1024.8
20260503173411 79 138 7.0 9.0 0.00 0.00 0.00 50 1024.8
20260503172908 80 21 6.0 9.0 0.00 0.00 0.00 51 1024.8
20260503172406 79 136 3.0 3.0 0.00 0.00 0.00 52 1024.9
20260503171901 80 80 6.0 9.0 0.00 0.00 0.00 50 1024.7
20260503171358 79 114 7.0 9.0 0.00 0.00 0.00 52 1024.9
20260503170856 79 98 8.0 10.0 0.00 0.00 0.00 52 1025.0
20260503170352 80 99 7.0 9.0 0.00 0.00 0.00 49 1024.9
20260503150744 75 49 1.0 2.0 0.00 0.00 0.00 60 1025.6
20260503150240 74 32 3.0 5.0 0.00 0.00 0.00 60 1025.4
20260503140205 69 31 1.0 2.0 0.00 0.00 0.00 73 1025.0
20260503131134 64 348 0.0 0.0 0.00 0.00 0.00 82 1024.9
20260503130632 63 348 0.0 0.0 0.00 0.00 0.00 82 1024.6
20260503130129 63 348 1.0 3.0 0.00 0.00 0.00 82 1024.8
20260503110522 58 344 0.0 0.0 0.00 0.00 0.00 90 1023.4
20260503090408 59 329 0.0 0.0 0.00 0.00 0.00 90 1023.5
20260503081335 59 326 0.0 0.0 0.00 0.00 0.00 89 1024.1
20260503080832 60 326 0.0 0.0 0.00 0.00 0.00 89 1024.0
20260503080329 60 326 0.0 0.0 0.00 0.00 0.00 89 1024.0
20260503072805 60 325 0.0 0.0 0.00 0.00 0.00 88 1024.4
20260503072305 60 324 0.0 0.0 0.00 0.00 0.00 88 1024.4
20260503071758 60 323 0.0 0.0 0.00 0.00 0.00 87 1024.2
20260503071255 60 323 0.0 0.0 0.00 0.00 0.00 87 1024.3
20260503070752 60 322 1.0 2.0 0.00 0.00 0.00 87 1024.5
20260503070250 60 322 0.0 0.0 0.00 0.00 0.00 87 1024.3
20260503060215 61 313 0.0 0.0 0.00 0.00 0.00 86 1024.2
20260503054702 61 309 0.0 0.0 0.00 0.00 0.00 87 1024.4
20260503054159 61 307 0.0 0.0 0.00 0.00 0.00 87 1024.4
20260503053657 61 307 0.0 0.0 0.00 0.00 0.00 87 1024.3
20260503053155 61 307 0.0 0.0 0.00 0.00 0.00 87 1024.4
20260503052651 61 307 0.0 0.0 0.00 0.00 0.00 87 1024.3
20260503052148 61 307 0.0 0.0 0.00 0.00 0.00 86 1024.4
20260503051643 61 307 0.0 0.0 0.00 0.00 0.00 86 1024.3